{"data":{"norad_id":51734,"epoch":"2026-09-20T03:45:05.633280Z","epoch_age_seconds":81330,"freshness":"FRESH","line1":"1 51734U 22016W   26263.15631520  .00001148  00000+0  45122-4 0  9994","line2":"2 51734  53.1592 150.9810 0001225  96.3394 263.7748 15.34389886253119","mean_motion":15.34389886,"eccentricity":0.0001225,"inclination_deg":53.1592,"raan_deg":150.981,"arg_perigee_deg":96.3394,"mean_anomaly_deg":263.7748,"bstar":4.5122e-5,"rev_number":25311,"period_min":93.848376683056,"perigee_km":461.89529469975,"apogee_km":463.57130792357,"semimajor_km":6840.8703013117,"source":"CELESTRAK","updated_at":"2026-09-20T09:00:39.929944Z"}}